Location: Barcelona
(41.3830°N, 2.1830°E)
Time: 02:26:18
(UTC+01:00)

Max Valier Satellite - Visible Passes

Search period start: 19 March 2019 00:00
Search period end: 29 March 2019 00:00
Orbit: 492 x 509 km, 97.4° (Epoch: 18 March)

Date Brightness Start Highest point End Pass type
(mag) Time Alt. Az. Time Alt. Az. Time Alt. Az.
19 Mar ? 21:54:50 12° NNW 21:54:50 12° NNW 21:55:03 10° NNW visible
20 Mar ? 21:34:58 13° N 21:34:58 13° N 21:35:26 10° N visible
21 Mar ? 21:15:07 13° NNE 21:15:07 13° NNE 21:15:36 10° N visible
22 Mar ? 20:55:16 11° NNE 20:55:16 11° NNE 20:55:29 10° NNE visible
23 Mar ? 22:10:05 13° NNW 22:10:05 13° NNW 22:10:32 10° NNW visible
24 Mar ? 21:50:14 16° N 21:50:14 16° N 21:51:03 10° N visible
25 Mar ? 21:30:23 17° N 21:30:23 17° N 21:31:22 10° N visible
26 Mar ? 21:10:31 15° NNE 21:10:31 15° NNE 21:11:28 10° NNE visible
27 Mar ? 20:50:40 12° NE 20:50:40 12° NE 20:51:15 10° NNE visible
27 Mar ? 22:25:20 13° NW 22:25:20 13° NW 22:25:50 10° NNW visible
28 Mar ? 22:05:29 18° NNW 22:05:29 18° NNW 22:06:30 10° NNW visible
